Location: Baix
(44.7118°N, 4.7648°E)
Time: 11:40:05
(UTC+00:00)

Tiros 1 despin weight - Pass Details

Date: 28 November 2020
Orbit: 594 x 641 km, 48.2° (Epoch: 17 January)

Event Time Altitude Azimuth Distance (km) Brightness Sun altitude
Rises 17:39:54 0° 291° (WNW) 2,941 ? -16.8°
Reaches altitude 10° 17:42:20 10° 284° (WNW) 2,026 ? -17.2°
Maximum altitude 17:46:44 43° 214° (SW) 895 ? -18.0°
Enters shadow 17:50:56 11° 144° (SE) 1,940 ? -18.7°
